Regional Weather Roundup
Issued by NWS

Home | Current Version | Previous Version | Text Only | Print | Product List | Glossary On
Versions: 1 2 3 4 5 6 7 8 9 10 11 12 13 14 15 16 17 18 19 20 21 22 23 24 25 26 27 28 29 30 31 32 33 34 35 36 37 38 39 40 41 42 43 44 45 46 47 48 49 50
000
ASUS44 KBMX 291010
RWRAL

ALABAMA REGIONAL WEATHER ROUNDUP
NATIONAL WEATHER SERVICE BIRMINGHAM AL
500 AM CDT TUE JUL 29 2014

NOTE: "FAIR" INDICATES FEW OR NO CLOUDS BELOW 12,000 FEET
WITH NO SIGNIFICANT WEATHER AND/OR OBSTRUCTIONS TO VISIBILITY.

THE REMARK "TC" DENOTES TEMPERATURE IN DEGREES CELSIUS.

ALZ001>011-014-016>018-020-291100-
NORTH ALABAMA

CITY           SKY/WX    TMP DP  RH WIND       PRES   REMARKS
MUSCLE SHOALS  CLEAR     67  59  75 N3        30.04S
HUNTSVILLE     CLEAR     64  60  87 CALM      30.02S
DECATUR        CLEAR     63  61  93 N7        30.03S
HALEYVILLE     FAIR      62  61  97 CALM      30.06S
GADSDEN        CLEAR     64  59  82 CALM      30.00R
$$

ALZ012-013-022-023-030>036-040>044-291100-
WEST CENTRAL ALABAMA

CITY           SKY/WX    TMP DP  RH WIND       PRES   REMARKS
TUSCALOOSA     CLEAR     65  62  90 CALM      30.01R
$$

ALZ015-024>027-033>036-040>044-291100-
CENTRAL ALABAMA

CITY           SKY/WX    TMP DP  RH WIND       PRES   REMARKS
BIRMINGHAM     CLEAR     65  62  90 CALM      30.02S
MONTGOMERY     CLEAR     67  62  84 NW3       29.97S
SHELBY CO ARPT CLEAR     68  63  84 NW3       30.01R
MAXWELL AFB    CLEAR     66  65  97 W1        29.97S
GREENVILLE     FAIR      69  63  81 N6        29.97S
$$

ALZ019-021-028-029-037-038-045>048-291100-
EAST CENTRAL ALABAMA

CITY           SKY/WX    TMP DP  RH WIND       PRES   REMARKS
ANNISTON       CLEAR     64  60  87 CALM      30.00R
ALEXANDER CITY CLEAR     71  62  75 CALM      29.99S
AUBURN         CLEAR     64  59  82 N7        30.01S
$$

ALZ051>064-291100-
SOUTHWEST ALABAMA

CITY           SKY/WX    TMP DP  RH WIND       PRES   REMARKS
MOBILE         PTCLDY    72  68  87 N6        29.98S
BROOKLEY FIELD PTCLDY    74  69  85 N7        29.98S
EVERGREEN      CLEAR     67  65  93 CALM      29.97F
$$

ALZ049-050-065>069-291100-
SOUTHEAST ALABAMA

CITY           SKY/WX    TMP DP  RH WIND       PRES   REMARKS
DOTHAN         PTCLDY    70  66  87 N6        29.98F
OZARK          PTCLDY    71  67  87 NW6       29.95S
TROY           CLEAR     65  63  93 CALM      29.97S
EUFAULA        FAIR      67  63  87 CALM      29.95S
$$


USA.gov is the U.S. government's official web portal to all federal, state and local government web resources and services.